Theta_e
351 351 351 350 350 350 350 351 351 350 350 350 349 348 348 347 347 347 347 347 346 346 345 341 340 342 343 342 340 338 336 335 336 336 335 335 335 336 338 338 338 339 341 339 336 336 337 337 338 339 338 338 338 338 339 340 341 340 342 344 344 344 345
352 351 351 351 351 350 350 351 350 350 350 350 350 349 349 348 348 347 347 347 347 347 347 344 341 340 341 340 339 339 336 333 334 335 335 334 334 334 334 335 335 335 338 338 336 335 335 336 338 339 339 337 337 338 338 339 340 340 341 343 342 342 343
351 352 352 351 351 351 351 350 350 351 350 351 350 350 349 348 348 348 347 347 348 347 347 345 343 341 339 339 338 337 337 334 333 334 333 333 333 331 331 333 334 333 335 337 336 335 336 335 337 338 339 339 337 338 339 339 339 340 340 340 341 340 342
352 353 352 352 352 350 351 350 350 351 350 350 351 350 350 349 349 348 348 348 349 347 347 346 345 343 340 340 338 336 335 334 333 333 333 333 332 331 332 333 334 333 333 334 335 335 335 336 336 337 337 338 337 338 338 338 339 340 340 340 340 340 340
352 354 352 353 353 351 351 350 350 350 350 350 350 350 350 349 349 348 348 348 348 348 348 347 346 345 343 342 339 336 334 333 333 332 332 333 332 332 333 332 333 332 331 332 333 333 334 335 336 337 337 338 338 337 337 338 338 338 339 340 340 340 340
349 353 352 353 353 352 352 351 351 350 349 350 350 350 350 349 349 349 348 348 348 348 348 348 347 346 345 344 342 339 334 333 333 333 332 333 332 332 332 330 330 330 329 330 331 331 331 333 334 335 335 335 335 334 334 335 337 338 338 338 340 341 341
348 350 353 353 352 353 352 350 351 350 350 350 350 350 350 350 350 349 348 348 348 348 348 347 347 347 346 346 345 342 337 333 333 333 333 333 332 332 331 330 330 328 328 328 328 328 328 329 330 330 330 329 328 328 328 330 332 335 337 338 338 339 340
346 349 352 353 352 352 352 351 351 350 350 349 349 350 350 350 350 349 349 349 348 348 347 347 348 347 348 347 346 345 341 335 332 332 333 333 333 333 332 331 330 328 328 328 327 327 326 326 326 326 326 326 326 326 326 326 327 329 332 335 337 338 339
342 348 350 352 352 352 352 351 351 350 350 349 349 350 350 350 350 350 350 349 348 348 347 347 348 347 348 348 347 347 345 341 335 332 332 333 333 333 332 332 331 329 328 328 327 327 326 326 326 326 325 325 325 325 325 325 325 325 327 330 333 335 337
335 340 346 350 350 352 352 351 351 350 350 350 349 349 350 350 350 350 350 350 349 349 348 348 348 348 349 349 348 348 347 345 341 335 332 331 332 332 332 332 332 331 330 328 328 327 326 327 326 326 326 325 326 326 325 326 325 324 326 328 330 331 333
331 332 338 344 348 350 351 351 351 350 350 349 349 350 350 350 350 350 350 350 350 350 349 349 349 349 349 349 349 349 348 348 346 342 336 330 329 330 331 332 332 332 332 330 329 327 327 327 326 326 326 326 326 326 326 326 325 324 325 325 327 329 330
330 330 332 334 339 345 348 350 351 351 350 350 349 350 350 350 350 350 351 350 350 350 350 350 349 349 349 349 350 349 350 350 349 347 342 336 330 328 329 331 332 332 333 331 330 328 327 327 326 327 327 326 327 326 326 326 326 326 325 324 326 327 329
327 328 330 331 334 338 342 345 347 349 351 350 349 350 349 350 351 351 351 350 351 351 351 351 350 350 350 350 350 351 351 351 351 349 347 343 339 333 328 328 329 331 331 331 331 330 328 328 327 326 327 326 327 327 326 326 326 326 325 324 325 326 328
325 326 328 331 333 335 337 340 342 345 349 350 351 350 350 351 351 351 352 351 351 352 351 352 351 351 352 351 351 352 351 351 351 351 350 348 346 342 337 332 328 328 329 329 331 330 329 328 327 326 327 327 326 326 326 326 326 325 326 324 324 325 327
324 324 325 327 329 331 333 336 339 341 344 347 350 351 351 352 351 352 352 351 352 353 352 353 352 352 353 352 352 352 352 352 352 352 351 350 349 349 345 341 337 332 330 329 329 328 329 328 328 327 326 326 326 326 326 326 325 325 325 325 324 325 325
323 323 323 323 325 327 329 332 335 338 341 343 346 349 351 352 352 352 353 352 352 353 352 353 353 353 353 352 352 353 352 353 352 352 352 352 351 351 350 348 345 341 338 334 331 329 328 328 329 328 327 326 325 325 325 325 325 324 324 325 325 324 325
322 322 323 323 324 326 328 329 330 332 337 340 343 345 348 351 352 353 353 353 353 353 352 353 353 354 353 353 354 353 353 353 353 352 353 352 352 352 351 351 350 348 345 342 339 336 333 330 329 329 328 327 326 325 325 325 324 325 324 325 324 325 325
321 321 322 323 323 325 327 329 328 328 330 334 338 342 345 348 351 353 354 354 353 354 353 353 353 353 353 353 354 354 353 353 353 353 353 353 352 352 352 352 352 350 349 348 346 344 340 337 334 332 330 329 329 328 328 327 327 326 326 326 326 326 327
321 320 321 321 322 323 325 326 327 327 326 327 331 337 342 344 347 350 353 355 355 354 354 353 354 353 353 354 354 354 354 353 354 353 353 353 353 353 352 352 352 352 352 351 350 348 346 344 342 339 336 334 333 332 331 331 331 330 329 329 329 330 330
321 320 320 320 321 322 323 325 325 326 327 327 326 329 335 340 343 347 350 353 355 355 355 354 354 354 354 354 354 354 354 354 354 354 353 353 353 353 353 353 353 353 353 353 352 351 351 350 348 346 344 340 338 336 334 334 334 333 333 332 332 333 333
320 320 319 320 321 321 322 323 324 324 326 326 326 326 327 334 341 344 346 351 354 355 355 355 354 355 354 354 354 355 355 355 355 355 354 354 354 354 354 354 354 355 355 354 355 355 355 354 352 351 349 346 343 341 339 337 336 336 336 335 335 335 336
319 319 319 319 320 321 321 323 322 323 324 326 327 326 325 329 336 339 342 347 351 353 354 355 354 355 356 356 356 356 356 356 356 356 356 355 355 355 355 355 356 356 356 356 357 357 358 357 355 354 352 349 347 345 342 340 339 338 338 337 338 338 338
317 318 318 318 319 320 321 322 322 322 324 326 327 328 327 329 331 333 337 342 347 350 352 354 355 355 355 357 357 357 357 357 357 357 357 357 357 357 357 357 357 358 358 358 358 359 359 359 359 358 354 352 350 347 345 342 340 340 340 339 340 340 340
316 316 317 317 319 320 320 322 322 322 323 325 327 329 330 330 330 331 333 337 343 348 350 351 353 355 355 356 356 357 357 358 359 359 359 359 358 358 359 359 358 359 359 359 359 360 360 360 360 360 358 355 352 349 347 344 341 342 341 341 341 341 342
314 315 315 316 318 319 320 320 322 322 322 324 327 329 330 329 330 332 333 334 337 344 348 349 351 353 354 355 355 356 356 357 358 359 360 360 360 359 359 359 359 359 360 360 360 360 360 360 360 360 360 358 356 352 349 347 343 343 342 342 342 343 344
313 314 315 315 317 319 319 319 321 321 321 322 325 329 330 329 330 332 333 334 334 338 343 346 348 350 352 353 354 355 356 355 356 356 357 358 359 359 359 359 359 360 360 360 360 361 361 361 360 360 361 360 358 355 352 349 345 344 344 343 343 344 345
312 313 314 314 316 317 319 319 320 320 320 321 323 327 330 330 329 330 332 333 333 334 337 340 345 347 349 351 352 354 355 356 355 355 356 356 357 358 358 359 359 360 360 360 361 361 361 361 361 361 361 361 359 357 354 352 349 346 344 344 344 345 347
311 312 313 314 315 316 317 318 319 320 320 320 322 325 328 330 330 331 332 333 334 334 334 336 340 343 346 349 350 352 354 355 355 356 355 355 356 355 356 357 357 359 359 359 360 360 361 361 361 361 361 361 360 359 357 355 352 349 348 346 346 347 347
310 310 311 313 315 315 316 317 318 319 319 320 321 324 327 329 331 332 333 334 334 334 334 334 337 340 343 347 348 350 352 353 355 357 357 357 356 354 354 355 355 356 357 358 359 360 360 361 361 361 361 360 360 360 358 356 355 352 350 348 347 347 348
310 310 310 311 313 314 315 316 317 318 318 319 320 323 325 328 330 332 333 334 335 335 335 335 336 337 339 344 346 348 349 350 353 355 357 359 359 356 355 355 354 355 355 356 358 360 360 361 362 362 361 361 361 360 359 358 357 354 353 351 350 349 348
310 309 309 309 311 313 314 315 316 317 318 319 320 322 325 327 329 331 333 334 335 336 337 337 337 336 337 340 344 346 348 348 350 353 355 358 360 360 357 356 356 356 356 356 358 360 360 362 362 362 362 362 361 361 360 359 358 357 355 353 351 350 350
309 309 309 309 309 311 313 314 315 316 318 319 320 321 324 327 329 331 333 335 335 336 338 339 339 338 337 338 341 344 347 348 349 350 353 356 359 361 360 358 357 357 357 357 358 359 361 361 361 362 361 361 361 361 360 360 358 357 356 355 354 353 351
309 308 308 309 309 309 311 313 314 315 317 319 320 321 323 326 329 330 333 335 336 337 338 339 339 339 338 338 339 342 346 347 348 351 353 354 357 359 360 360 359 358 358 358 358 359 360 360 361 361 360 360 361 361 360 360 359 358 357 357 355 354 353
308 308 308 308 308 309 310 312 313 315 316 319 320 321 322 325 328 330 332 335 336 337 338 338 339 339 339 339 340 341 344 347 350 352 355 355 356 357 358 359 360 359 358 357 358 358 358 358 360 360 360 360 361 361 361 361 360 359 358 358 357 356 354
307 307 307 308 308 309 310 311 313 315 316 318 320 320 322 324 325 328 332 335 336 337 337 338 338 338 338 340 342 342 344 347 352 355 356 357 357 357 357 358 358 358 356 354 354 354 354 354 356 358 359 359 360 360 361 361 360 359 359 358 358 357 355
307 307 307 308 308 309 310 312 313 315 317 318 318 319 322 323 324 326 331 334 336 336 337 338 339 338 337 338 341 343 345 348 353 356 358 358 358 358 357 357 357 357 356 354 352 352 352 351 351 352 355 358 359 360 360 359 359 359 359 359 358 358 357
307 307 307 308 309 309 310 312 314 315 317 318 318 318 320 322 323 326 331 334 336 336 337 338 339 339 338 336 338 342 346 349 354 358 360 360 359 359 358 358 357 357 356 356 356 357 356 354 353 353 355 357 360 360 359 359 359 360 359 359 358 358 357
307 307 308 309 309 310 311 312 314 316 317 318 318 318 319 321 322 326 331 334 335 336 337 338 339 340 339 337 338 340 344 348 353 358 361 361 361 362 360 359 358 358 357 357 358 359 359 358 358 357 357 359 360 360 360 360 360 360 360 360 359 358 358
Wind_Speed
34 36 38 40 42 44 45 45 48 48 47 48 49 50 50 50 50 49 48 46 44 42 40 40 40 39 37 35 34 33 33 33 33 34 35 34 32 30 28 27 26 25 23 23 23 22 20 19 19 18 16 15 15 14 14 14 14 13 13 14 13 12 11
35 37 38 41 43 45 47 46 47 49 49 49 49 50 51 51 51 51 50 48 46 44 42 41 41 41 39 37 35 34 34 34 34 35 35 35 33 31 30 28 27 26 25 24 24 22 20 20 20 19 17 16 15 15 14 14 14 14 13 13 14 13 12
35 40 41 42 45 46 47 47 47 48 50 50 50 51 52 52 52 52 51 49 47 45 44 42 42 42 41 38 37 36 36 36 36 36 36 36 35 33 31 29 27 26 25 25 24 23 21 20 20 19 18 17 16 16 16 15 14 14 14 14 14 13 13
34 39 43 44 45 46 45 45 47 47 49 50 51 52 53 53 53 52 51 50 48 47 46 44 43 42 42 41 39 37 37 38 38 37 37 36 35 34 32 31 28 27 26 26 25 24 22 20 20 20 19 19 18 17 17 16 16 15 15 15 15 14 13
35 36 39 42 42 43 44 44 47 49 49 50 50 51 52 52 52 52 52 51 49 48 47 45 44 43 43 43 41 38 38 39 39 39 38 37 36 35 35 32 30 28 27 26 26 24 23 22 21 21 20 19 19 18 18 18 17 16 16 17 16 15 14
31 36 37 41 42 43 45 47 47 49 50 50 50 50 50 50 51 52 52 51 51 49 48 47 45 44 43 43 42 40 39 40 41 41 40 39 38 37 36 34 31 29 27 27 26 25 24 23 22 22 21 20 19 18 18 18 18 18 18 18 18 17 16
18 36 39 41 44 44 46 47 47 48 49 48 48 48 48 49 50 51 51 51 52 51 50 49 47 46 45 43 43 42 40 40 41 42 42 41 40 39 38 35 33 30 28 28 27 26 25 24 23 23 22 20 19 18 17 17 17 18 18 19 19 18 18
15 23 36 39 42 44 44 46 47 47 47 46 46 46 47 48 49 50 51 51 52 51 51 51 49 47 46 44 43 42 41 40 41 42 43 43 42 41 40 38 36 33 31 30 29 27 26 25 25 24 23 22 21 20 19 19 18 18 19 19 19 19 19
34 9 15 25 30 32 36 41 43 44 45 45 45 46 47 48 49 50 51 51 51 51 52 51 50 48 46 45 44 42 42 41 41 42 43 45 45 44 42 41 39 37 35 33 31 30 29 28 27 26 25 25 24 23 22 21 20 20 20 20 21 20 20
42 34 17 4 10 16 22 28 33 37 41 44 45 45 46 48 49 50 51 51 51 52 52 51 50 49 48 46 44 43 42 42 42 42 43 45 46 46 45 44 43 41 39 36 34 33 32 31 30 29 28 27 26 25 24 23 23 23 22 22 22 22 22
41 41 36 26 14 6 8 12 19 27 34 40 44 45 46 47 48 49 50 50 51 51 51 50 50 49 49 47 45 43 42 42 42 43 44 45 46 47 47 46 46 45 43 41 39 37 35 34 33 32 31 31 30 29 28 26 25 25 25 24 22 22 22
39 41 41 37 30 20 12 7 8 15 22 29 35 39 42 45 46 47 48 49 50 50 50 50 50 49 49 48 46 45 43 42 41 43 44 45 46 46 46 47 47 47 46 45 43 41 39 38 36 36 35 34 33 32 31 29 29 28 27 26 25 24 22
35 39 41 40 38 32 24 17 10 5 11 18 23 28 32 37 42 44 45 46 47 48 48 48 48 49 49 48 48 46 44 42 41 41 42 43 45 45 46 46 47 48 48 47 46 45 43 42 40 39 38 37 36 35 33 32 32 31 29 28 28 26 25
35 37 41 43 42 39 34 28 21 13 6 7 13 19 24 28 34 38 41 43 44 44 45 46 46 48 48 48 48 47 45 43 41 40 39 40 41 43 45 46 47 48 48 48 48 48 46 45 43 41 40 39 38 37 36 35 34 33 32 31 30 29 28
33 34 37 40 41 41 39 35 30 23 15 7 5 12 17 21 25 30 35 40 41 41 42 43 44 46 47 48 48 48 46 43 42 41 39 39 39 40 42 44 46 47 47 48 49 49 48 47 45 44 43 41 40 39 38 38 37 35 34 33 32 31 30
30 33 35 37 38 38 38 38 35 30 23 15 8 3 9 13 18 23 29 34 38 39 40 41 42 44 45 47 48 47 46 45 44 42 41 40 40 39 40 41 43 45 46 48 48 49 48 48 47 46 45 44 42 41 41 40 39 37 35 34 33 32 32
29 33 35 35 36 35 35 35 36 34 30 25 18 10 1 6 12 17 23 28 32 36 38 39 41 43 44 46 47 46 46 46 45 44 43 42 41 40 40 40 40 42 44 45 47 47 48 49 49 48 47 46 45 44 43 42 41 39 38 36 35 35 34
29 33 34 33 33 33 32 32 34 35 33 31 26 19 11 3 5 12 19 24 28 31 35 39 41 42 44 45 45 46 46 46 46 45 45 44 43 42 41 40 41 41 42 43 44 45 46 48 49 49 48 48 47 46 45 44 42 41 40 39 38 37 36
28 31 32 31 30 31 30 29 29 31 32 32 31 26 20 12 5 5 13 21 26 28 32 37 40 41 42 43 43 44 45 45 46 46 45 45 44 43 42 42 42 42 41 42 42 43 45 46 47 48 48 48 48 47 46 45 43 42 42 41 39 38 37
26 29 30 29 28 29 28 27 26 27 28 29 30 28 25 19 12 5 6 15 23 27 29 34 38 39 40 41 41 42 43 44 45 45 45 45 44 44 44 44 43 41 40 40 40 41 43 44 45 46 46 47 47 46 46 44 43 42 41 41 39 38 38
25 26 28 27 27 27 27 26 25 26 26 26 28 28 27 24 18 11 6 9 18 23 27 30 34 36 37 39 40 41 41 43 44 45 45 44 44 45 44 44 43 41 40 39 39 39 39 41 43 44 45 45 45 45 45 43 41 40 40 40 38 38 37
24 24 24 25 25 25 26 25 24 24 24 24 25 26 27 25 22 18 14 6 11 17 23 28 31 33 34 35 37 39 41 42 43 44 45 44 44 45 44 44 43 41 40 39 39 38 37 37 38 40 42 43 44 44 44 42 40 39 39 38 38 37 38
21 21 23 23 22 22 24 24 22 21 21 21 21 23 25 25 23 22 20 12 7 12 18 23 28 31 32 32 33 36 38 41 42 43 44 44 44 45 44 44 43 42 41 40 40 39 38 37 35 36 39 41 42 43 43 41 39 38 38 37 37 38 38
19 20 22 22 22 22 21 22 22 21 20 19 19 18 21 24 24 23 23 18 9 8 12 16 20 25 30 32 33 33 34 37 39 42 43 43 44 44 44 43 43 42 42 41 41 41 39 38 36 35 36 38 40 41 42 41 39 38 37 37 37 38 38
20 20 21 21 21 21 21 22 22 20 19 19 19 18 19 22 24 24 24 22 15 9 10 12 15 19 23 28 31 33 33 34 35 38 40 42 43 44 44 44 43 42 42 42 42 41 40 39 38 37 36 36 38 39 41 40 39 38 37 36 36 37 37
22 21 22 21 19 19 21 22 21 21 20 20 19 18 18 20 23 24 24 23 19 12 11 13 14 16 19 22 25 28 31 33 34 36 38 40 42 43 43 43 43 42 42 42 42 41 40 40 40 39 38 37 37 38 39 39 38 38 37 36 36 36 37
23 22 22 21 19 19 21 22 21 20 20 19 19 18 17 19 22 24 24 24 21 18 15 14 15 17 19 21 22 24 26 28 31 33 36 38 40 41 42 43 43 43 42 42 42 42 41 40 40 40 39 38 38 38 39 39 38 37 37 36 36 36 36
25 25 23 21 19 19 21 23 22 20 19 18 19 18 17 18 19 22 24 23 22 21 19 16 16 18 21 22 23 23 23 23 24 27 30 34 36 37 40 41 42 43 43 43 43 42 42 41 41 41 40 39 38 39 39 39 38 38 37 36 36 36 36
27 28 26 23 21 21 22 23 23 22 20 19 18 18 18 18 19 20 22 23 22 21 21 19 18 17 20 23 25 25 24 23 22 22 23 26 29 32 35 37 39 41 41 42 43 43 43 42 41 41 41 40 40 39 39 39 39 39 38 37 36 36 36
30 30 29 26 23 22 22 23 24 24 22 20 18 18 18 19 20 20 21 22 22 22 22 21 20 19 19 20 23 26 26 24 23 23 22 22 24 27 30 32 34 36 38 41 43 43 43 42 42 42 42 42 41 41 40 40 39 39 39 38 37 37 37
33 32 32 29 26 24 23 24 25 25 25 22 19 18 18 18 20 21 21 21 22 22 22 22 23 23 21 19 20 23 25 25 25 25 24 23 23 25 28 29 31 33 36 39 42 43 44 43 43 42 43 43 43 42 41 40 40 39 39 39 39 38 38
34 34 34 32 30 27 25 25 25 25 26 23 19 18 18 17 18 21 22 21 21 22 22 22 23 25 25 22 20 20 22 25 27 27 27 26 25 25 27 28 30 33 35 37 40 42 43 44 43 43 43 43 43 43 42 41 40 40 40 39 39 40 40
34 36 36 34 33 30 27 25 25 25 26 25 20 18 19 17 17 20 22 21 21 21 22 23 23 26 27 25 22 20 20 23 25 26 27 28 28 28 27 27 28 32 35 37 39 40 42 44 45 45 44 44 44 43 42 41 41 41 40 40 40 41 41
35 37 38 37 35 32 28 25 24 23 24 24 21 19 20 20 18 19 21 22 21 21 24 24 25 27 28 27 25 22 20 20 21 23 25 28 30 31 31 29 29 31 34 36 37 38 39 41 43 45 45 43 43 43 42 43 43 42 41 40 40 40 40
35 38 39 38 36 32 28 25 23 22 23 23 21 20 21 21 20 20 21 21 21 21 24 26 26 28 29 27 24 22 20 19 19 21 23 26 28 31 33 33 32 33 34 35 35 36 36 37 39 41 41 41 41 41 42 43 41 38 37 37 37 38 39
35 37 38 37 35 31 28 24 22 21 21 21 20 20 21 21 21 21 20 20 21 21 22 25 27 29 30 28 25 21 19 19 20 20 23 25 27 29 32 34 34 35 35 35 36 38 38 38 37 36 36 38 40 40 40 39 36 33 34 35 36 37 38
35 36 36 35 32 30 27 23 21 20 20 20 20 21 21 21 21 22 21 19 20 20 21 23 26 28 29 29 27 23 19 18 20 20 22 24 26 28 30 33 35 35 35 35 37 40 41 40 38 35 36 39 40 40 40 39 36 36 37 37 37 37 38
34 33 33 32 30 29 26 22 21 20 20 19 19 21 21 21 21 22 21 19 18 18 20 22 26 28 28 28 27 24 20 19 19 19 21 23 24 27 30 33 35 36 37 37 39 41 42 41 39 38 38 40 41 41 41 40 38 38 39 38 38 38 37
Wind_Direction
208 208 208 208 208 208 209 208 206 206 206 207 206 207 208 209 211 213 215 217 218 218 218 218 217 218 218 218 219 221 221 219 216 215 217 219 221 222 222 223 224 223 220 219 218 216 215 213 213 214 215 214 215 215 214 215 220 223 224 225 221 214 213
208 208 208 208 208 209 210 208 207 207 207 207 207 207 208 209 211 213 215 217 219 219 219 219 219 219 219 219 219 221 221 220 217 216 218 220 222 223 224 226 227 225 223 222 220 219 217 216 215 215 216 216 216 218 219 219 222 226 228 230 229 225 225
208 208 208 209 209 210 210 209 208 207 207 208 208 208 209 210 212 214 215 217 219 219 220 220 221 221 221 220 219 220 221 220 218 216 218 220 222 223 224 225 226 227 226 223 221 222 221 219 218 218 217 217 216 217 221 222 223 227 231 234 236 234 233
212 211 210 210 211 210 210 209 208 208 208 209 210 210 211 211 212 214 216 218 220 220 220 221 222 223 223 222 221 220 220 220 219 218 219 221 222 222 222 223 224 226 227 223 220 222 223 223 221 220 220 218 217 218 222 225 225 228 232 236 240 241 239
215 213 212 211 211 210 210 209 209 209 208 209 210 211 212 211 211 214 216 218 220 222 223 223 224 225 225 225 224 222 221 221 221 220 221 222 223 222 223 224 224 225 225 224 222 221 223 225 223 220 219 219 219 219 222 227 228 228 232 235 239 242 243
221 212 211 212 211 210 210 210 210 209 209 209 210 211 212 211 211 213 215 217 220 222 223 224 225 225 226 226 226 225 224 223 223 222 223 224 224 224 225 226 226 225 224 225 225 223 222 224 223 220 220 222 223 224 226 230 231 231 232 234 237 240 242
247 217 212 211 212 212 211 210 210 210 210 210 210 211 212 211 212 214 215 216 218 220 222 223 224 225 226 227 228 228 227 225 224 224 225 225 226 227 228 228 228 228 226 226 227 226 224 224 223 223 225 228 231 233 234 235 237 236 235 235 237 239 241
349 228 218 215 214 212 211 211 210 210 209 208 209 210 211 212 213 214 215 216 217 219 220 223 225 226 227 228 229 230 229 227 226 226 226 227 227 228 230 231 231 231 230 229 229 230 230 229 229 229 231 234 237 239 241 242 244 244 242 241 241 241 242
22 15 221 220 221 218 215 213 211 210 208 208 209 210 211 212 213 215 216 217 217 218 220 223 225 226 227 229 230 231 231 230 229 228 228 228 229 229 231 232 233 233 233 233 233 234 235 235 235 236 237 239 240 242 244 246 248 249 247 246 245 245 245
24 32 47 119 213 223 222 220 217 214 210 208 209 210 212 213 214 215 217 218 218 219 220 222 224 226 227 229 231 232 233 233 232 231 230 229 230 231 231 232 234 236 236 236 236 237 238 239 240 241 242 243 244 245 246 248 249 251 250 249 248 249 249
25 29 37 51 71 128 191 213 220 220 217 214 212 211 212 213 215 216 216 218 219 220 221 222 224 225 226 228 231 232 233 234 234 233 232 231 231 232 233 233 234 236 238 238 238 239 240 240 242 244 245 246 247 248 249 250 252 252 252 252 251 251 251
29 29 31 36 48 63 85 121 184 212 219 221 219 216 215 215 215 216 217 219 220 221 221 222 223 224 226 228 230 232 234 234 235 235 235 233 232 233 234 234 234 236 238 239 240 240 241 242 243 244 246 248 249 251 252 254 255 256 255 254 254 254 254
29 31 31 31 36 45 54 65 77 137 199 216 221 222 221 220 219 218 219 220 222 222 222 223 223 224 225 228 230 232 234 235 236 237 237 237 236 235 235 236 236 237 238 240 241 241 242 243 244 245 247 248 250 251 253 255 257 258 258 257 257 257 258
29 28 31 31 33 36 40 44 47 56 95 183 208 216 221 223 224 223 222 223 223 224 224 224 223 224 226 228 230 233 235 236 237 239 239 240 239 239 238 238 239 240 240 241 242 242 243 244 245 246 247 249 250 252 253 255 256 258 258 259 259 260 260
28 24 25 28 29 31 32 34 36 38 44 67 163 198 209 216 220 223 225 226 225 225 226 226 225 225 226 228 231 234 236 237 238 239 240 241 241 241 241 240 241 242 243 243 244 245 245 246 247 248 249 250 251 253 254 255 256 256 257 258 259 261 262
27 23 22 22 23 26 28 29 30 31 32 36 48 145 194 205 211 215 221 226 227 226 227 227 228 228 228 229 232 235 236 238 239 240 240 241 242 242 243 243 243 243 244 245 246 247 248 248 249 249 250 252 253 254 255 256 257 257 257 258 259 262 264
24 22 20 17 17 19 22 22 22 24 25 25 24 25 52 198 204 208 214 221 226 229 228 228 230 231 231 232 234 236 237 238 239 240 241 242 243 244 244 245 245 245 246 247 247 249 249 250 250 251 252 253 254 256 257 257 258 258 258 259 260 261 263
22 21 18 14 12 14 16 16 14 14 15 17 16 13 9 354 209 205 207 211 218 226 229 230 231 233 235 236 236 236 237 238 239 240 242 243 244 245 245 246 246 247 247 248 248 249 250 250 252 252 253 254 255 256 258 259 259 260 261 261 262 263 263
18 18 16 12 9 10 12 11 9 6 6 7 8 7 4 359 336 227 209 206 209 216 224 230 232 234 236 237 237 237 237 238 240 241 243 245 245 245 246 246 247 247 248 249 250 251 251 252 253 253 254 254 255 256 258 259 260 261 262 263 263 264 264
12 13 12 10 7 7 8 7 5 2 358 358 359 0 359 355 349 321 235 212 206 207 215 226 231 233 236 237 237 238 238 239 240 242 245 246 246 246 246 246 247 248 249 250 251 252 253 254 254 254 255 254 255 256 258 259 260 261 262 263 264 264 264
6 6 5 4 2 2 3 3 3 1 356 352 352 353 352 349 345 342 313 230 211 208 210 216 223 229 234 237 238 238 239 239 240 242 244 246 246 246 247 248 249 250 250 250 251 252 254 255 255 255 256 255 255 256 257 258 259 260 261 262 263 263 264
358 357 355 356 359 359 358 357 359 1 359 355 351 349 347 343 338 340 339 291 224 217 215 215 218 221 226 233 238 239 240 241 241 242 243 244 244 245 246 248 249 250 250 250 250 252 254 255 256 256 256 255 255 255 256 257 257 259 260 261 262 263 263
351 349 347 350 354 355 352 350 352 356 356 356 353 347 345 342 335 334 339 332 266 230 223 220 222 221 221 225 232 237 241 242 242 242 242 242 242 244 246 248 250 250 250 250 250 251 252 254 256 258 257 256 255 254 255 256 256 257 258 259 261 262 262
341 341 342 346 348 347 346 344 345 348 350 350 350 347 344 340 335 333 339 341 321 255 231 226 226 226 224 226 229 232 236 238 240 241 241 241 242 245 247 248 249 251 251 251 251 252 253 254 256 259 259 257 256 254 254 255 256 256 257 259 260 261 262
331 331 335 341 344 340 338 338 337 338 342 343 343 344 343 337 334 334 338 343 337 294 255 243 233 228 228 230 231 233 233 233 236 238 239 241 244 246 248 249 250 251 251 252 253 253 254 254 255 257 259 259 258 256 255 256 256 256 256 257 258 260 260
327 325 325 332 338 334 329 330 330 331 335 339 339 341 340 334 331 332 335 339 339 323 292 273 256 242 235 233 232 235 236 235 236 237 238 240 243 245 247 249 250 251 251 252 253 253 253 254 254 255 258 259 259 257 256 256 256 256 256 256 257 258 258
322 319 318 321 326 328 324 322 324 325 326 331 335 337 337 331 328 329 330 333 336 333 321 301 280 262 251 244 237 235 237 238 239 239 240 241 243 245 247 249 250 251 252 252 253 252 252 253 253 254 257 258 259 258 257 257 257 256 256 256 256 257 257
320 318 316 311 311 318 320 317 319 319 317 321 329 333 334 331 327 326 326 328 333 333 329 320 300 278 263 256 248 242 239 238 238 241 242 242 242 244 246 248 249 251 252 252 252 252 252 253 253 253 255 256 258 258 258 258 258 258 257 257 257 256 256
317 317 316 310 304 308 313 312 313 314 312 314 321 328 330 329 327 325 324 326 330 331 328 323 313 295 276 263 256 251 247 243 240 242 245 245 243 242 243 246 247 249 251 251 250 250 250 252 252 252 253 254 256 257 258 258 258 258 258 258 258 257 256
311 314 315 311 303 302 306 308 306 306 306 308 315 323 328 328 326 324 324 325 327 328 326 322 317 308 292 273 259 253 252 250 246 244 246 249 247 243 242 244 245 247 249 249 248 247 248 249 250 250 251 252 254 256 257 258 258 259 259 259 259 258 257
307 309 311 310 305 300 300 303 302 301 301 304 311 320 325 327 326 323 322 325 325 323 323 321 317 312 303 288 268 254 250 251 250 247 246 248 248 245 243 243 244 245 246 246 246 245 246 248 249 249 250 252 253 255 256 257 258 259 260 260 259 259 258
302 304 306 307 305 301 297 297 298 298 297 299 306 317 322 324 325 322 320 322 323 320 318 318 317 312 307 299 284 264 252 248 248 248 248 247 248 248 245 243 243 243 243 243 243 244 246 247 247 249 250 251 253 254 255 256 257 259 260 260 260 260 259
299 301 302 302 303 303 298 295 295 297 296 295 301 314 320 321 322 321 317 316 318 317 314 315 315 311 308 304 294 281 265 253 248 249 249 248 248 249 249 246 243 241 241 242 242 244 246 247 246 246 248 250 252 253 253 254 257 259 259 260 260 260 259
296 297 297 297 299 300 297 293 293 295 295 293 298 310 317 318 321 320 314 311 313 312 309 311 313 312 310 308 302 293 281 268 257 253 251 250 248 248 249 248 244 240 241 242 242 243 246 247 247 248 249 252 254 253 252 253 256 258 260 260 261 262 261
295 294 293 293 295 296 293 290 290 293 292 290 295 304 309 313 318 320 313 308 308 307 306 308 312 312 311 311 309 302 289 274 264 259 257 254 251 248 248 249 248 246 246 248 248 248 249 251 251 252 254 255 255 253 252 253 257 262 264 264 265 265 264
293 292 291 290 291 292 289 284 287 290 288 286 292 301 304 308 315 318 314 306 303 303 304 306 308 308 308 309 310 308 294 274 263 259 259 258 255 252 251 250 249 250 250 252 254 255 255 254 254 255 257 256 256 256 256 259 265 270 269 266 266 266 265
291 291 290 288 288 289 286 281 283 287 285 284 290 297 300 304 310 316 313 305 300 300 302 302 301 301 304 305 306 307 298 278 263 259 258 257 256 255 254 250 248 248 249 251 254 254 254 254 254 256 257 257 257 258 260 263 267 267 265 264 264 264 263
287 289 287 284 284 286 285 280 282 285 286 285 287 292 295 299 307 313 310 302 299 300 298 295 293 294 299 302 301 301 297 283 269 262 259 256 255 254 253 249 246 245 246 248 250 250 249 250 251 253 254 255 255 256 258 260 263 262 263 263 263 262 262